Weather History for Gustavus, AK

Change the Weather History Date:

Friday, February 14, 2014

  Actual Average Record
Temperature  
Mean Temperature 34 °F -  
Max Temperature 39 °F 37 °F 48 °F (1986)
Min Temperature 30 °F 23 °F -16 °F (1956)
Degree Days  
Heating Degree Days 30    
Moisture  
Dew Point 29 °F    
Average Humidity 85    
Maximum Humidity 93    
Minimum Humidity 70    
Precipitation  
Precipitation 0.00 in - - ()
Sea Level Pressure  
Sea Level Pressure 29.12 in    
Wind  
Wind Speed 10 mph (ENE)    
Max Wind Speed 26 mph    
Max Gust Speed 38 mph    
Visibility 7 miles    
Events      
Averages and records for this station are not official NWS values.
T = Trace of Precipitation, MM = Missing Value Source: NWS Daily Summary

Daily Weather History Graph

Daily Weather History Graph

Search for Another Location

Airport:

Trip Planner

Search our weather history database for the weather conditions in past years. The results will help you decide how hot, cold, wet, or windy it might be!

Date:

Astronomy

Feb. 14, 2014 Rise Set
Actual Time 7:37 AM AKST 4:57 PM AKST
Civil Twilight 6:55 AM AKST 5:39 PM AKST
Nautical Twilight 6:09 AM AKST 6:26 PM AKST
Astronomical Twilight 5:23 AM AKST 7:12 PM AKST
Moon 5:21 PM AKST (2/14) 6:59 AM AKST (2/14)
Length of Visible Light 10h 43m
Length of Day
9h 20m
Full, 100% of the Moon is Illuminated
Feb 14
Full
Feb 14
Full
Feb 22
Last Quarter
Feb 28
New
Mar 8
First Quarter

Hourly Weather History & Observations

Time (AKST) Temp. Windchill Dew Point Humidity Pressure Visibility Wind Dir Wind Speed Gust Speed Precip Events Conditions
12:16 AM 30.2 °F 23.4 °F 28.4 °F 93% 29.16 in 10.0 mi NW 6.9 mph - N/A   Mostly Cloudy
12:36 AM 30.2 °F 23.4 °F 26.6 °F 86% 29.14 in 10.0 mi NW 6.9 mph - N/A   Overcast
12:56 AM 30.2 °F 22.6 °F 26.6 °F 86% 29.12 in 10.0 mi NW 8.1 mph - N/A   Overcast
1:16 AM 30.2 °F 24.3 °F 26.6 °F 86% 29.11 in 10.0 mi NNW 5.8 mph - N/A   Overcast
1:36 AM 30.2 °F 24.3 °F 26.6 °F 86% 29.10 in 10.0 mi NNW 5.8 mph - N/A   Overcast
1:56 AM 30.2 °F 23.4 °F 26.6 °F 86% 29.09 in 10.0 mi NNW 6.9 mph - N/A   Overcast
2:16 AM 30.2 °F 22.6 °F 26.6 °F 86% 29.07 in 3.0 mi NNW 8.1 mph - N/A   Overcast
2:36 AM 30.2 °F 21.3 °F 28.4 °F 93% 29.06 in 4.0 mi NNW 10.4 mph - N/A   Overcast
2:56 AM 30.2 °F 22.6 °F 28.4 °F 93% 29.05 in 3.0 mi NNW 8.1 mph - N/A   Overcast
3:16 AM 30.2 °F 22.6 °F 28.4 °F 93% 29.03 in 9.0 mi North 8.1 mph - N/A   Overcast
3:36 AM 30.2 °F 22.6 °F 28.4 °F 93% 29.02 in 5.0 mi NNW 8.1 mph - N/A   Overcast
3:56 AM 30.2 °F 21.3 °F 28.4 °F 93% 29.00 in 2.5 mi NNW 10.4 mph - N/A   Overcast
4:16 AM 30.2 °F 21.9 °F 28.4 °F 93% 28.99 in 2.5 mi NNW 9.2 mph - N/A   Overcast
4:36 AM 30.2 °F 22.6 °F 28.4 °F 93% 28.98 in 1.8 mi NW 8.1 mph - N/A   Overcast
4:56 AM 30.2 °F 20.8 °F 28.4 °F 93% 28.96 in 1.5 mi NNW 11.5 mph - N/A   Overcast
5:16 AM 30.2 °F 20.2 °F 28.4 °F 93% 28.95 in 2.5 mi NW 12.7 mph 16.1 mph N/A   Overcast
5:36 AM 30.2 °F 21.9 °F 28.4 °F 93% 28.95 in 4.0 mi NNW 9.2 mph - N/A   Overcast
5:56 AM 30.2 °F 21.9 °F 28.4 °F 93% 28.95 in 2.0 mi NNW 9.2 mph - N/A   Overcast
6:16 AM 30.2 °F 21.9 °F 28.4 °F 93% 28.94 in 1.5 mi NNW 9.2 mph - N/A   Overcast
6:36 AM 30.2 °F 21.9 °F 28.4 °F 93% 28.94 in 1.8 mi NNW 9.2 mph - N/A   Overcast
6:56 AM 30.2 °F 21.9 °F 28.4 °F 93% 28.94 in 2.0 mi NNW 9.2 mph - N/A   Overcast
7:16 AM 30.2 °F 21.9 °F 28.4 °F 93% 28.93 in 2.5 mi NNW 9.2 mph - N/A   Overcast
7:36 AM 30.2 °F 23.4 °F 28.4 °F 93% 28.94 in 2.0 mi NNW 6.9 mph - N/A   Overcast
7:56 AM 30.2 °F 23.4 °F 28.4 °F 93% 28.94 in 1.0 mi North 6.9 mph - N/A   Overcast
8:16 AM 30.2 °F 24.3 °F 28.4 °F 93% 28.95 in 1.0 mi NNW 5.8 mph - N/A   Overcast
8:36 AM 30.2 °F 24.3 °F 28.4 °F 93% 28.95 in 1.2 mi North 5.8 mph - N/A   Overcast
8:56 AM 30.2 °F 26.7 °F 28.4 °F 93% 28.96 in 1.0 mi NNW 3.5 mph - N/A   Overcast
9:16 AM 30.2 °F 25.4 °F 28.4 °F 93% 28.97 in 1.0 mi NNW 4.6 mph - N/A   Overcast
9:36 AM 30.2 °F 21.9 °F 28.4 °F 93% 28.99 in 1.0 mi NNW 9.2 mph - N/A   Overcast
9:56 AM 30.2 °F 24.3 °F 28.4 °F 93% 29.00 in 1.0 mi NW 5.8 mph - N/A   Overcast
10:16 AM 32.0 °F 27.5 °F 28.4 °F 87% 29.02 in 1.2 mi NW 4.6 mph - N/A   Overcast
10:36 AM 32.0 °F - 30.2 °F 93% 29.04 in 1.2 mi Calm Calm - N/A   Overcast
10:56 AM 32.0 °F - 30.2 °F 93% 29.05 in 1.0 mi Calm Calm - N/A   Overcast
11:16 AM 32.0 °F - 30.2 °F 93% 29.07 in 1.2 mi Calm Calm - N/A   Overcast
11:36 AM 32.0 °F 28.7 °F 30.2 °F 93% 29.09 in 1.8 mi North 3.5 mph - N/A   Overcast
11:56 AM 33.8 °F - 30.2 °F 87% 29.12 in 2.5 mi Calm Calm - N/A   Overcast
12:16 PM 32.0 °F 28.7 °F 30.2 °F 93% 29.14 in 10.0 mi SE 3.5 mph - N/A   Overcast
12:36 PM 33.8 °F 29.6 °F 30.2 °F 87% 29.16 in 10.0 mi SE 4.6 mph - N/A   Overcast
12:56 PM 33.8 °F 27.7 °F 30.2 °F 87% 29.17 in 10.0 mi ESE 6.9 mph - N/A   Mostly Cloudy
1:16 PM 33.8 °F 27.0 °F 30.2 °F 87% 29.19 in 10.0 mi SE 8.1 mph - N/A   Overcast
1:36 PM 33.8 °F 25.8 °F 30.2 °F 87% 29.21 in 10.0 mi SE 10.4 mph - N/A   Overcast
1:56 PM 33.8 °F 27.7 °F 30.2 °F 87% 29.22 in 10.0 mi SSE 6.9 mph - N/A   Overcast
2:16 PM 35.6 °F 29.2 °F 30.2 °F 81% 29.24 in 10.0 mi SSE 8.1 mph - N/A   Overcast
2:36 PM 35.6 °F 28.0 °F 30.2 °F 81% 29.25 in 10.0 mi SE 10.4 mph - N/A   Mostly Cloudy
2:56 PM 35.6 °F 27.5 °F 30.2 °F 81% 29.25 in 10.0 mi SE 11.5 mph - N/A   Mostly Cloudy
3:16 PM 35.6 °F 28.0 °F 30.2 °F 81% 29.25 in 10.0 mi ESE 10.4 mph - N/A   Overcast
3:36 PM 37.4 °F 29.8 °F 30.2 °F 75% 29.25 in 10.0 mi ESE 11.5 mph - N/A   Overcast
3:56 PM 35.6 °F 28.0 °F 30.2 °F 81% 29.24 in 10.0 mi ESE 10.4 mph - N/A   Mostly Cloudy
4:16 PM 35.6 °F 27.5 °F 30.2 °F 81% 29.24 in 10.0 mi SE 11.5 mph - N/A   Mostly Cloudy
4:36 PM 37.4 °F 28.2 °F 28.4 °F 70% 29.24 in 10.0 mi SE 16.1 mph - N/A   Overcast
4:56 PM 37.4 °F 27.8 °F 28.4 °F 70% 29.25 in 10.0 mi SE 17.3 mph 23.0 mph N/A   Overcast
5:16 PM 37.4 °F 27.8 °F 32.0 °F 81% 29.25 in 10.0 mi SE 17.3 mph 24.2 mph N/A   Overcast
5:36 PM 37.4 °F 28.9 °F 30.2 °F 75% 29.24 in 10.0 mi SE 13.8 mph 19.6 mph N/A   Overcast
5:56 PM 37.4 °F 27.2 °F 30.2 °F 75% 29.24 in 10.0 mi SE 19.6 mph 34.5 mph N/A   Overcast
6:16 PM 37.4 °F 28.2 °F 30.2 °F 75% 29.24 in 10.0 mi SSE 16.1 mph 29.9 mph N/A   Overcast
6:36 PM 37.4 °F 27.8 °F 30.2 °F 75% 29.23 in 10.0 mi SE 17.3 mph 25.3 mph N/A   Overcast
6:56 PM 37.4 °F 26.4 °F 30.2 °F 75% 29.23 in 10.0 mi SE 23.0 mph 27.6 mph N/A   Overcast
7:16 PM 39.2 °F 29.6 °F 30.2 °F 70% 29.23 in 10.0 mi SE 19.6 mph 29.9 mph N/A   Overcast
7:36 PM 37.4 °F 26.9 °F 30.2 °F 75% 29.23 in 10.0 mi SE 20.7 mph 28.8 mph N/A   Overcast
7:56 PM 39.2 °F 28.7 °F 30.2 °F 70% 29.22 in 10.0 mi SE 23.0 mph 27.6 mph N/A   Overcast
8:16 PM 39.2 °F 29.0 °F 30.2 °F 70% 29.22 in 10.0 mi SE 21.9 mph 34.5 mph N/A   Overcast
8:36 PM 37.4 °F 26.1 °F 30.2 °F 75% 29.22 in 10.0 mi SE 24.2 mph 28.8 mph N/A   Overcast
8:56 PM 37.4 °F 26.6 °F 30.2 °F 75% 29.22 in 10.0 mi SE 21.9 mph 29.9 mph N/A   Overcast
9:16 PM 37.4 °F 26.9 °F 32.0 °F 81% 29.22 in 10.0 mi SE 20.7 mph 31.1 mph N/A   Overcast
9:36 PM 37.4 °F 25.6 °F 32.0 °F 81% 29.22 in 10.0 mi SE 26.5 mph 34.5 mph N/A   Overcast
9:56 PM 37.4 °F 26.9 °F 32.0 °F 81% 29.22 in 10.0 mi SE 20.7 mph 33.4 mph N/A   Overcast
10:16 PM 37.4 °F 25.6 °F 32.0 °F 81% 29.22 in 10.0 mi SE 26.5 mph 33.4 mph N/A   Overcast
10:36 PM 37.4 °F 26.1 °F 32.0 °F 81% 29.22 in 10.0 mi SE 24.2 mph 28.8 mph N/A   Overcast
10:56 PM 37.4 °F 26.4 °F 32.0 °F 81% 29.21 in 10.0 mi SE 23.0 mph 32.2 mph N/A   Overcast
11:16 PM 37.4 °F 26.1 °F 32.0 °F 81% 29.22 in 10.0 mi SE 24.2 mph 38.0 mph N/A   Overcast
11:36 PM 37.4 °F 25.9 °F 32.0 °F 81% 29.21 in 10.0 mi SE 25.3 mph 35.7 mph N/A   Overcast
11:56 PM 39.2 °F 28.5 °F 32.0 °F 75% 29.20 in 10.0 mi SE 24.2 mph 34.5 mph N/A   Mostly Cloudy